This is the latest recevied weather packets stored in our database for station/object KJ6APE. If no packets are shown the sender has not sent any weather packets the latest 10 day(s).
| Time | Temp. | Humidity | Pressure | Rain* | Wind** | Luminosity | Snow |
|---|---|---|---|---|---|---|---|
| 1777762426 | 19.44° C | 56% | 1011.9 hPa | 0 mm | - | 834 W/m² | - |
| 1777762123 | 19.44° C | 55% | 1012.2 hPa | 0 mm | - | 739 W/m² | - |
| 1777761819 | 19.44° C | 55% | 1012.2 hPa | 0 mm | - | 848 W/m² | - |
| 1777761517 | 19.44° C | 56% | 1012.4 hPa | 0 mm | - | 833 W/m² | - |
| 1777761215 | 18.89° C | 56% | 1012.2 hPa | 0 mm | - | 873 W/m² | - |
| 1777760912 | 19.44° C | 55% | 1012.5 hPa | 0 mm | - | 739 W/m² | - |
| 1777760610 | 18.89° C | 57% | 1012.4 hPa | 0 mm | - | 804 W/m² | - |
| 1777760305 | 18.89° C | 56% | 1012.5 hPa | 0 mm | - | 857 W/m² | - |
| 1777760002 | 18.89° C | 58% | 1012.6 hPa | 0 mm | - | 826 W/m² | - |
| 1777759699 | 18.89° C | 58% | 1012.6 hPa | 0 mm | - | 863 W/m² | - |
| 1777759395 | 18.89° C | 56% | 1012.7 hPa | 0 mm | - | 838 W/m² | - |
| 1777759091 | 18.89° C | 59% | 1012.6 hPa | 0 mm | - | 908 W/m² | - |
| 1777758789 | 19.44° C | 57% | 1012.6 hPa | 0 mm | - | 1014 W/m² | - |
| 1777758486 | 19.44° C | 57% | 1012.8 hPa | 0 mm | - | 808 W/m² | - |
| 1777758182 | 18.89° C | 58% | 1012.8 hPa | 0 mm | - | 866 W/m² | - |
| 1777757880 | 18.89° C | 60% | 1012.6 hPa | 0 mm | - | 948 W/m² | - |
| 1777757577 | 18.89° C | 60% | 1012.8 hPa | 0 mm | - | 966 W/m² | - |
| 1777757276 | 18.89° C | 60% | 1012.7 hPa | 0 mm | - | 912 W/m² | - |
| 1777756974 | 18.89° C | 59% | 1012.8 hPa | 0 mm | - | 968 W/m² | - |
| 1777756669 | 18.89° C | 59% | 1012.8 hPa | 0 mm | - | 1011 W/m² | - |
| 1777756366 | 18.89° C | 62% | 1012.9 hPa | 0 mm | - | 1008 W/m² | - |
| 1777756063 | 18.33° C | 61% | 1013 hPa | 0 mm | - | 895 W/m² | - |
| 1777755761 | 18.89° C | 60% | 1013 hPa | 0 mm | - | 958 W/m² | - |
| 1777755458 | 19.44° C | 60% | 1013.2 hPa | 0 mm | - | 959 W/m² | - |
| 1777755154 | 19.44° C | 60% | 1013.2 hPa | 0 mm | - | 661 W/m² | - |
* Rain latest hour (hover to see other rain measurements)
** Current wind speed in m/s (hover to see current wind gust speed)